Hourly Data Report for October 31, 2014

All times are specified in Local Standard Time (LST). Add 1 hour to adjust for Daylight Saving Time where and when it is observed.

BAKER LAKE A
NUNAVUT

64°17'56.000" N
96°04'40.000" W
18.60 m
2300503
71926
YBK

Download Data

Hourly Data (October 2014)
Hourly Data Report for October 31, 2014
Temp Definition
°C
Dew Point Temp Definition
°C
Rel Hum Definition
%
Wind Dir Definition
10's deg

Wind Spd Definition
km/h
Visibility Definition
km
Stn Press Definition
kPa
Hmdx Definition


Wind Chill Definition


Weather Definition


TIME
00:00 Legend Double Dagger -15.4 -17.1 87 33 4 6.4 101.98   -18 Snow,Fog
01:00 Legend Double Dagger -16.0 -17.8 86 35 5 6.4 101.98   -20 Fog
02:00 Legend Double Dagger -14.8 -16.5 87 2 5 8.1 101.99   -18 Snow,Fog
03:00 Legend Double Dagger -14.7 -16.4 87 1 7 16.1 101.98   -19 Snow
04:00 Legend Double Dagger -14.6 -16.3 87 5 6 16.1 101.94   -19 Snow
05:00 Legend Double Dagger -14.3 -15.9 88 7 8 16.1 101.91   -20 Snow
06:00 Legend Double Dagger -13.5 -15.1 88 6 8 16.1 101.91   -19 Snow
07:00 Legend Double Dagger -12.7 -14.2 89 8 8 24.1 101.91   -18 Snow
08:00 Legend Double Dagger -12.7 -14.2 89 8 11 16.1 101.88   -19 Snow
09:00 Legend Double Dagger -12.4 -13.9 89 7 10 24.1 101.89   -18 Snow
10:00 Legend Double Dagger -12.0 -13.3 90 8 10 9.7 101.86   -18 Snow
11:00 Legend Double Dagger -11.5 -12.8 90 16 9 8.1 101.92   -17 Snow
12:00 Legend Double Dagger -12.1 -13.4 90 15 12 4.8 101.94   -18 Snow
13:00 Legend Double Dagger -12.6 -14.1 89 12 15 24.1 101.89   -20 Snow
14:00 Legend Double Dagger -13.4 -15.0 88 13 16 32.2 101.86   -21 Snow
15:00 Legend Double Dagger -13.6 -15.2 88 15 18 32.2 101.91   -22 Snow
16:00 Legend Double Dagger -14.1 -15.7 88 12 18 32.2 101.86   -23 Snow
17:00 Legend Double Dagger -14.5 -16.1 88 15 21 24.1 101.81   -24 Snow
18:00 Legend Double Dagger -14.3 -15.9 88 15 23 24.1 101.83   -24 Snow
19:00 Legend Double Dagger -14.7 -16.3 88 15 25 24.1 101.75   -25 Snow
20:00 Legend Double Dagger -14.7 -16.4 87 13 21 24.1 101.70   -24 Snow
21:00 Legend Double Dagger -14.3 -15.9 88 14 27 24.1 101.64   -25 Snow
22:00 Legend Double Dagger -13.1 -14.6 89 14 23 24.1 101.64   -22 Snow
23:00 Legend Double Dagger -12.6 -14.1 89 14 27 24.1 101.54   -22 Snow

Notes on Data Quality.

Legend

  • E = Estimated
  • M = Missing
  • NA = Not Available
  • ‡ = Partner data that is not subject to review by the National Climate Archives
Date modified: